Location: Csohesd
(46.2500°N, 22.6167°E)
Time: 04:49:24
(UTC+00:00)

ATLAS 5 CENTAUR R/B - Pass Details

Date: 21 October 2021
Orbit: 497 x 1159 km, 63.4° (Epoch: 25 November)

Event Time Altitude Azimuth Distance (km) Brightness Sun altitude
Rises 18:50:50 0° 286° (WNW) 2,734 5.9 -34.5°
Reaches altitude 10° 18:54:09 10° 317° (NW) 1,946 4.8 -35.0°
Enters shadow 18:55:43 13° 338° (NNW) 1,830 4.4 -35.3°
